Regional Weather Roundup
Issued by NWS

Home | Current Version | Previous Version | Graphics & Text | Print | Product List | Glossary On
Versions: 1 2 3 4 5 6 7 8 9 10 11 12 13 14 15 16 17 18 19 20 21 22 23 24 25 26 27 28 29 30 31 32 33 34 35 36 37 38 39 40 41 42 43 44 45 46 47 48 49 50
000
ASUS43 KDMX 221907
RWRIA

WEATHER ROUNDUP FOR IOWA
NATIONAL WEATHER SERVICE DES MOINES IA
200 PM CDT FRI AUG 22 2014

NOTE: "FAIR" INDICATES FEW OR NO CLOUDS BELOW 12,000 FEET WITH NO
SIGNIFICANT WEATHER AND/OR OBSTRUCTIONS TO VISIBILITY.

* - THESE STATIONS ARE NOT NWS STATIONS...THUS NOT UNDER NWS
QUALITY CONTROL.  THEY ALSO DO NOT REPORT WEATHER SUCH
AS PRECIPITATION OR FOG.

IAZ001>003-012>014-020>022-031>034-043>046-222000-
   NORTHWEST IOWA

CITY           SKY/WX    TMP DP  RH WIND       PRES   REMARKS
CARROLL *      CLOUDY    86  77  74 VRB6      29.94S HX  97
CHEROKEE *     MOSUNNY   84  75  74 E8        29.96F HX  92
DENISON *      MOSUNNY   88  75  66 VRB7      29.92F HX  97
LE MARS *      SUNNY     84  75  74 NE8       29.96F HX  92
ORANGE CITY *  MOSUNNY   82  70  65 E9        29.98S HX  86
SHELDON *      CLOUDY    79  73  83 NE9       29.99R HX  82
SIOUX CITY     PTSUNNY   88  72  58 E10       29.94S HX  94
SPENCER        CLOUDY    77  71  82 E10       29.99F
STORM LAKE *   PTSUNNY   81  79  94 NE10      29.98F HX  89
$$

IAZ055>058-069>071-079>083-090>094-222000-
   SOUTHWEST IOWA

CITY           SKY/WX    TMP DP  RH WIND       PRES   REMARKS
ATLANTIC *     MOSUNNY   88  73  62 VRB5      29.92F HX  96
AUDUBON *      SUNNY     88  81  79 CALM      29.96R HX 105
CLARINDA *     MOSUNNY   82  75  78 VRB6      29.94R HX  89
COUNCIL BLFS * MOSUNNY   88  79  74 VRB7      29.91F HX 102
CRESTON *      MOSUNNY   84  77  79 S5        29.94F HX  94
HARLAN  *      MOSUNNY   86  75  70 SE5       29.97S HX  95
LAMONI         CLOUDY    83  76  79 S7        29.95F HX  91
RED OAK *      SUNNY     88  77  70 VRB5      29.91F HX 100
SHENANDOAH *   SUNNY     86  73  66 CALM      29.91S HX  93
$$

IAZ047>049-059>061-072>074-084-222000-
   CENTRAL IOWA

CITY           SKY/WX    TMP DP  RH WIND       PRES   REMARKS
AMES           MOSUNNY   86  76  71 SE3       29.92F HX  96
ANKENY *       CLOUDY    84  75  74 E5        29.92F HX  92
CHARITON *     SUNNY     88  77  70 CALM      29.94S HX 100
DES MOINES     CLOUDY    85  77  77 CALM      29.92F THUNDER HX  95
GRINNELL*      LGT RAIN  84  75  74 S6        29.94F HX  92
KNOXVILLE *    PTSUNNY   86  77  74 SE5       29.91F HX  97
MARSHALLTOWN   MOSUNNY   88  75  65 VRB7      29.93F HX  97
PELLA *        PTSUNNY   90  77  66 SE5       29.93F HX 102
PERRY *        PTSUNNY   84  75  74 NE3       29.93F HX  92
$$

IAZ004>006-015-016-023>025-035-036-222000-
   NORTH CENTRAL IOWA

CITY           SKY/WX    TMP DP  RH WIND       PRES   REMARKS
ALGONA *       PTSUNNY   82  75  78 NE9       29.97F HX  89
CLARION *      CLOUDY    81  77  89 NE7       29.95S HX  88
ESTHERVILLE    CLOUDY    78  71  79 NE6       29.99S HX  80
FORT DODGE *   PTSUNNY   84  75  74 CALM      29.95F HX  92
MASON CITY     PTSUNNY   86  72  62 CALM      29.98F HX  92
FOREST CITY *  MOSUNNY   82  72  69 N6        29.98S HX  87
IOWA FALLS *   CLOUDY    88  75  66 S6        29.95F HX  97
$$

IAZ007>011-017>019-026>030-037>042-050>054-066-222000-
   NORTHEAST IOWA

CITY           SKY/WX    TMP DP  RH WIND       PRES   REMARKS
CEDAR RAPIDS   MOSUNNY   86  75  69 SW12      29.93F HX  95
CHARLES CITY * PTSUNNY   81  77  89 VRB6      29.97S HX  88
CLINTON *      PTSUNNY   81  75  83 SW9       29.97S HX  86
DECORAH *      MOSUNNY   82  77  83 CALM      29.95S HX  91
DUBUQUE        CLOUDY    80  76  87 W6        29.95F FOG     HX  86
MONTICELLO *   MOSUNNY   86  79  79 SW8       29.93F HX  99
OELWEIN *      PTSUNNY   86  77  74 S6        29.95F HX  97
WATERLOO       PTSUNNY   87  74  64 CALM      29.92F HX  95
$$

IAZ064-065-067-068-078-222000-
   EAST CENTRAL IOWA

CITY           SKY/WX    TMP DP  RH WIND       PRES   REMARKS
DAVENPORT      PTSUNNY   83  74  74 SW14G22   29.95F HX  89
IOWA CITY      MOSUNNY   86  75  69 S12       29.95F HX  95
MT. PLEASANT * PTSUNNY   88  73  62 S7        29.95F HX  96
MUSCATINE *    SUNNY     88  73  62 SW14      29.94F HX  96
QUAD CITIES    PTSUNNY   85  75  72 SW13G21   29.93F HX  93
$$

IAZ062-063-075>077-085>089-095>099-222000-
   SOUTHEAST IOWA

CITY           SKY/WX    TMP DP  RH WIND       PRES   REMARKS
BURLINGTON     PTSUNNY   85  76  74 S10       29.95F HX  94
FAIRFIELD *    MOSUNNY   84  75  74 S9        29.95F HX  92
FORT MADISON * SUNNY     86  79  79 S8        29.96F HX  99
KEOKUK *       MOSUNNY   84  77  79 S8        29.95F HX  94
OSKALOOSA *      N/A     86  77  74 S7        29.94F HX  97
CENTERVILLE *  SUNNY     84  79  84 SE6       29.96S HX  96
OTTUMWA        PTSUNNY   85  77  77 S8        29.92F HX  95
WASHINGTON *   SUNNY     84  77  79 S9        29.94F HX  94
$$

ABBREVIATIONS USED IN REMARKS
   TC - TEMPERATURES IN CELSIUS
  WCI - WIND CHILL INDEX
   HX - HEAT INDEX
  VSB - VISIBILITY
$$




USA.gov is the U.S. government's official web portal to all federal, state and local government web resources and services.